Home   Weather   Laval   Past weeks

Flag for Canada Past Weather in Laval, Quebec, Canada — Yesterday and Last 2 Weeks

Now
61 °F

Mostly cloudy.


Feels Like: 61 °F
Forecast: N/A
Wind: 5 mph from Southeast

Location: Montreal / Mirabel

Current Time: Sep 26, 2016 at 4:51:42 PM

Latest Report: Sep 26, 2016 at 4:00 PM


Visibility: 45 mi

Pressure: 30.00 "Hg

Humidity: 48%

Dew Point: 41 °F

Location of LavalLocation

Past Weather in Laval — Graph

°F

Laval Temperature Yesterday

Maximum temperature yesterday: 61 °F (at 3:00 PM)
Minimum temperature yesterday: 39 °F (at 6:00 AM)
Average temperature yesterday: 49 °F

High & Low Weather Summary for the Past Weeks

 TemperatureHumidityPressure
High79 °F (Sep 13, 3:17 PM)100% (Sep 15, 12:00 AM)30.37 "Hg (Sep 15, 12:00 AM)
Low36 °F (Sep 26, 5:00 AM)29% (Sep 25, 4:00 PM)29.83 "Hg (Sep 18, 1:00 AM)
Average59 °F77%30.11 "Hg
* Reported Sep 11 3:00 PM — Sep 26 3:00 PM, Laval, Weather by CustomWeather, © 2016

Note: Actual official high and low records may vary slightly from our data, if they occured in-between our weather recording intervals... More about our weather records

Advertising

Laval Weather History for the Previous 24 Hours

Scroll right to see more
 ConditionsComfort  
Time TempWeatherWind HumidityBarometerVisibility
3:00 PM
Mon, Sep 26
63 °FPartly sunny.7 mph45%30.03 "Hg45 mi
1:00 PM61 °FBroken clouds.6 mph48%30.09 "Hg45 mi
12:00 PM61 °FPartly sunny.7 mph55%30.12 "Hg45 mi
11:00 AM57 °FPartly sunny.5 mph59%30.15 "Hg30 mi
10:00 AM50 °FPartly sunny.3 mph76%30.16 "Hg30 mi
9:00 AM46 °FPartly sunny.3 mph82%30.18 "Hg25 mi
8:00 AM39 °FPartly sunny.3 mph93%30.19 "Hg25 mi
7:00 AM37 °FPartly sunny.5 mph93%30.19 "Hg45 mi
6:00 AM36 °FPassing clouds.2 mph100%30.20 "Hg25 mi
5:00 AM36 °FPassing clouds.No wind100%30.20 "Hg25 mi
4:00 AM37 °FClear.2 mph100%30.20 "Hg25 mi
3:00 AM37 °FClear.No wind93%30.20 "Hg25 mi
2:00 AM39 °FClear.No wind93%30.21 "Hg25 mi
1:00 AM37 °FClear.No wind100%30.22 "Hg25 mi
12:00 AM39 °FClear.No wind100%30.22 "Hg25 mi
11:00 PM
Sun, Sep 25
41 °FPassing clouds.No wind93%30.22 "Hg25 mi
10:00 PM43 °FPassing clouds.3 mph81%30.22 "Hg25 mi
9:00 PM48 °FPassing clouds.5 mph62%30.21 "Hg25 mi
8:00 PM48 °FPassing clouds.2 mph62%30.20 "Hg25 mi
7:00 PM52 °FPassing clouds.3 mph54%30.19 "Hg25 mi
6:00 PM59 °FPassing clouds.3 mph36%30.17 "Hg45 mi
5:00 PM61 °FPassing clouds.6 mph31%30.16 "Hg45 mi
4:00 PM61 °FPassing clouds.10 mph29%30.16 "Hg45 mi
Weather by CustomWeather, © 2016

See weather overviewHow to use our weather pages